Regional Weather Roundup
Issued by NWS

Home | Current Version | Previous Version | Text Only | Print | Product List | Glossary Off
Versions: 1 2 3 4 5 6 7 8 9 10 11 12 13 14 15 16 17 18 19 20 21 22 23 24 25 26 27 28 29 30 31 32 33 34 35 36 37 38 39 40 41 42 43 44 45 46 47 48 49 50

000
ASUS43 KDMX 272007
RWRIA

WEATHER ROUNDUP FOR IOWA
NATIONAL WEATHER SERVICE DES MOINES IA
300 PM CDT THU AUG 27 2015

NOTE: "FAIR" INDICATES FEW OR NO CLOUDS BELOW 12,000 FEET WITH NO
SIGNIFICANT WEATHER AND/OR OBSTRUCTIONS TO VISIBILITY.

* - THESE STATIONS ARE NOT NWS STATIONS...THUS NOT UNDER NWS
QUALITY CONTROL.  THEY ALSO DO NOT REPORT WEATHER SUCH
AS PRECIPITATION OR FOG.

IAZ001>003-012>014-020>022-031>034-043>046-272100-
   NORTHWEST IOWA

CITY           SKY/WX    TMP DP  RH WIND       PRES   REMARKS
CARROLL *      SUNNY     73  64  73 S14G20    29.99F
CHEROKEE *     PTSUNNY   75  66  73 S12       29.99S
DENISON *      SUNNY     75  66  73 S16       29.97F
LE MARS *      SUNNY     79  66  65 S17G25    29.96F HX  81
ORANGE CITY *  SUNNY     79  66  65 S12       29.98S HX  81
SHELDON *      SUNNY     77  68  73 S8        29.99F
SIOUX CITY     PTSUNNY   80  65  59 S21G29    29.94F HX  82
SPENCER        PTSUNNY   75  63  66 S13       30.03R
STORM LAKE *   SUNNY     73  64  73 S17G23    30.00F
$$

IAZ055>058-069>071-079>083-090>094-272100-
   SOUTHWEST IOWA

CITY           SKY/WX    TMP DP  RH WIND       PRES   REMARKS
ATLANTIC *     SUNNY     79  64  61 SE14G21   30.01F HX  81
AUDUBON *      SUNNY     77  66  69 S13       30.02F
CLARINDA *     SUNNY     82  68  61 SE10G16   30.02F HX  85
COUNCIL BLFS * SUNNY     81  66  61 S23G31    29.98F HX  83
CRESTON *      SUNNY     73  63  68 S15G22    30.06F
HARLAN  *      SUNNY     79  72  78 S17G23    30.03S HX  82
LAMONI         CLOUDY    71  61  70 S9        30.05F
RED OAK *      SUNNY     81  68  65 S15       30.00S HX  83
SHENANDOAH *   SUNNY     82  66  57 S16G24    29.99F HX  85
$$

IAZ047>049-059>061-072>074-084-272100-
   CENTRAL IOWA

CITY           SKY/WX    TMP DP  RH WIND       PRES   REMARKS
AMES           CLOUDY    69  59  70 S15G21    30.05R
ANKENY *       SUNNY     72  61  68 S13G21    30.03F
CHARITON *     SUNNY     72  59  64 S18       30.05F
DES MOINES     CLOUDY    73  61  65 S12       30.04F
GRINNELL*      CLOUDY    70  61  73 SE12      30.06R
KNOXVILLE *    SUNNY     72  61  68 SE12      30.05R
MARSHALLTOWN   CLOUDY    70  60  70 S9        30.08R
PELLA *        CLOUDY    72  64  78 S12       30.06R
PERRY *          N/A     72  63  73 S8        30.03F
$$

IAZ004>006-015-016-023>025-035-036-272100-
   NORTH CENTRAL IOWA

CITY           SKY/WX    TMP DP  RH WIND       PRES   REMARKS
ALGONA *       SUNNY     70  61  73 S12G18    30.07R
CLARION *      SUNNY     72  59  64 S18       30.05S
ESTHERVILLE    CLOUDY    69  61  75 SE8       30.05S
FORT DODGE *   CLOUDY    70  61  73 S9        30.05F
MASON CITY     CLOUDY    69  59  70 SE14      30.05F
FOREST CITY *  SUNNY     70  57  64 S13       30.06S
IOWA FALLS *     N/A     70  61  73 SE12      30.08R
$$

IAZ007>011-017>019-026>030-037>042-050>054-066-272100-
   NORTHEAST IOWA

CITY           SKY/WX    TMP DP  RH WIND       PRES   REMARKS
CEDAR RAPIDS   CLOUDY    71  60  68 S14       30.08F
CHARLES CITY * SUNNY     75  61  60 S12       30.08S
CLINTON *      CLOUDY    73  59  60 S8        30.16F
DECORAH *      SUNNY     73  57  56 SE9G16    30.07F
DUBUQUE        PTSUNNY   72  58  61 S10       30.12F
MONTICELLO *   MOSUNNY   75  59  57 S12       30.10F
OELWEIN *      SUNNY     73  59  60 S12       30.08F
WATERLOO       PTSUNNY   75  58  55 S14       30.06S
$$

IAZ064-065-067-068-078-272100-
   EAST CENTRAL IOWA

CITY           SKY/WX    TMP DP  RH WIND       PRES   REMARKS
DAVENPORT      PTSUNNY   73  59  61 S10       30.14F
IOWA CITY      CLOUDY    74  60  61 S13       30.11F
MT. PLEASANT * CLOUDY    75  55  50 S7        30.11F
MUSCATINE *    MOSUNNY   73  57  56 S12       30.10F
QUAD CITIES    CLOUDY    74  59  59 S5        30.14F
$$

IAZ062-063-075>077-085>089-095>099-272100-
   SOUTHEAST IOWA

CITY           SKY/WX    TMP DP  RH WIND       PRES   REMARKS
BURLINGTON     CLOUDY    73  60  63 S6        30.13F
FAIRFIELD *    SUNNY     73  59  60 SE13      30.08F
FORT MADISON * SUNNY     73  61  64 CALM      30.14F
KEOKUK *       SUNNY     75  59  57 CALM      30.12F
OSKALOOSA *      N/A     72  59  64 SE13G24   30.02F
CENTERVILLE *  SUNNY     70  61  73 SE9       30.09S
OTTUMWA        CLOUDY    71  61  70 SE17G25   30.00F
WASHINGTON *     N/A    N/A N/A N/A MISG        N/A
$$

ABBREVIATIONS USED IN REMARKS
   TC - TEMPERATURES IN CELSIUS
  WCI - WIND CHILL INDEX
   HX - HEAT INDEX
  VSB - VISIBILITY
$$




USA.gov is the U.S. government's official web portal to all federal, state and local government web resources and services.